Satellite-Ground Cal/Val Region Overpasses Predictions

Prediction of Satellite NPP Overpassing Cal/Val Region: PacNW

Region Location: (Latitude: 10.00, Longitude: 139.50) to (Latitude: 22.70, Longitude: 165.60).

Table of predicted overpasses for the next 14.0 days since TLE Epoch: 10/30/2021
Interval Starting Time Starting Location Ending Time Ending Location
1 10/30/2021 03:05:59 ( 10.01, 153.35) 10/30/2021 03:09:35 ( 22.69, 150.33)
2 10/30/2021 15:37:53 ( 22.64, 150.58) 10/30/2021 15:41:28 ( 10.02, 147.58)
3 10/31/2021 02:46:58 ( 10.01, 158.10) 10/31/2021 02:50:34 ( 22.69, 155.08)
4 10/31/2021 15:18:53 ( 22.64, 155.34) 10/31/2021 15:22:28 ( 10.02, 152.33)
5 11/01/2021 02:27:58 ( 10.01, 162.86) 11/01/2021 02:31:34 ( 22.69, 159.84)
6 11/01/2021 14:59:52 ( 22.64, 160.09) 11/01/2021 15:03:27 ( 10.02, 157.08)
7 11/02/2021 02:11:24 ( 18.64, 165.59) 11/02/2021 02:12:33 ( 22.69, 164.59)
8 11/02/2021 03:50:27 ( 10.01, 142.24) 11/02/2021 03:53:43 ( 21.52, 139.51)
9 11/02/2021 14:40:52 ( 22.64, 164.84) 11/02/2021 14:44:27 ( 10.02, 161.84)
10 11/03/2021 03:31:27 ( 10.01, 146.99) 11/03/2021 03:35:03 ( 22.69, 143.97)
11 11/03/2021 16:03:20 ( 22.70, 144.24) 11/03/2021 16:06:56 ( 10.02, 141.22)
12 11/04/2021 03:12:26 ( 10.01, 151.74) 11/04/2021 03:16:02 ( 22.69, 148.72)
13 11/04/2021 15:44:20 ( 22.70, 148.99) 11/04/2021 15:47:56 ( 10.02, 145.97)
14 11/05/2021 02:53:26 ( 10.02, 156.50) 11/05/2021 02:57:02 ( 22.70, 153.48)
15 11/05/2021 15:25:19 ( 22.70, 153.74) 11/05/2021 15:28:55 ( 10.02, 150.72)
16 11/06/2021 02:34:25 ( 10.02, 161.25) 11/06/2021 02:38:01 ( 22.70, 158.23)
17 11/06/2021 15:06:19 ( 22.69, 158.50) 11/06/2021 15:09:55 ( 10.01, 155.48)
18 11/07/2021 02:15:55 ( 11.79, 165.60) 11/07/2021 02:19:00 ( 22.64, 163.00)
19 11/07/2021 03:56:55 ( 10.02, 140.63) 11/07/2021 03:58:17 ( 14.84, 139.51)
20 11/07/2021 14:47:19 ( 22.69, 163.25) 11/07/2021 14:50:55 ( 10.01, 160.23)
21 11/08/2021 03:37:54 ( 10.03, 145.38) 11/08/2021 03:41:29 ( 22.65, 142.38)
22 11/08/2021 14:31:09 ( 12.65, 165.59) 11/08/2021 14:31:54 ( 10.01, 164.98)
23 11/08/2021 16:09:48 ( 22.68, 142.63) 11/08/2021 16:13:24 ( 10.01, 139.61)
24 11/09/2021 03:18:54 ( 10.03, 150.14) 11/09/2021 03:22:29 ( 22.65, 147.13)
25 11/09/2021 15:50:48 ( 22.68, 147.38) 11/09/2021 15:54:24 ( 10.00, 144.36)
26 11/10/2021 02:59:53 ( 10.04, 154.89) 11/10/2021 03:03:28 ( 22.66, 151.88)
27 11/10/2021 15:31:47 ( 22.67, 152.13) 11/10/2021 15:35:22 ( 10.06, 149.13)
28 11/11/2021 02:40:53 ( 10.04, 159.64) 11/11/2021 02:44:28 ( 22.66, 156.63)
29 11/11/2021 15:12:47 ( 22.67, 156.89) 11/11/2021 15:16:22 ( 10.05, 153.88)
30 11/12/2021 02:21:52 ( 10.05, 164.39) 11/12/2021 02:25:27 ( 22.67, 161.39)
